Regional Weather Roundup
Issued by NWS Northern Indiana

Home | Current Version | Previous Version | Graphics & Text | Print | Product List | Glossary On
Versions: 1 2 3 4 5 6 7 8 9 10 11 12 13 14 15 16 17 18 19 20 21 22 23 24 25 26 27 28 29 30 31 32 33 34 35 36 37 38 39 40 41 42 43 44 45 46 47 48 49 50
000
ASUS43 KIWX 222200
RWRIWX

KIWX WEATHER ROUNDUP
NATIONAL WEATHER SERVICE NORTHERN INDIANA
600 PM EDT FRI AUG 22 2014

NOTE: "FAIR" INDICATES FEW OR NO CLOUDS BELOW 12,000 FEET WITH NO
SIGNIFICANT WEATHER AND/OR OBSTRUCTIONS TO VISIBILITY.

* THESE STATIONS ARE NOT UNDER NWS QUALITY CONTROL. THEY ALSO MAY NOT
  REPORT WEATHER SUCH AS PRECIPITATION OR FOG.

INZ001>027-222300-
NORTHERN INDIANA

CITY           SKY/WX    TMP DP  RH WIND       PRES   REMARKS
GARY*          CLOUDY    86  72  62 W6        29.94R
VALPARAISO     CLOUDY    82  72  71 SW7       29.96R
KNOX*          PTSUNNY   83  72  69 CALM      29.94S
SOUTH BEND     MOSUNNY   84  72  67 NW3       29.95S
ELKHART*       MOSUNNY   84  72  65 CALM      29.95S
GOSHEN         CLOUDY    86  72  62 CALM      29.95S
MONTICELLO*    PTSUNNY   82  74  77 CALM      29.95R
WARSAW*        CLOUDY    81  73  78 W5        29.96S
ANGOLA*        PTSUNNY   84  73  70 N6        29.96S
FORT WAYNE     PTSUNNY   84  73  69 VRB3      29.96F
PERU/GRISSOM   CLOUDY    81  78  90 SW6       29.97S

$$
INZ028>050-222300-
CENTRAL INDIANA

CITY           SKY/WX    TMP DP  RH WIND       PRES   REMARKS
LAFAYETTE      PTSUNNY   83  73  72 SW6       29.95S
KOKOMO*        PTSUNNY   81  73  78 W6        29.97S
MUNCIE*        PTSUNNY   82  71  69 NW8       29.97S
INDIANAPOLIS   PTSUNNY   85  70  60 SW7       29.97S

$$
MIZ043>046-050>051-056>058-064>065-071>073-077>080-222300-
SOUTHWEST LOWER MICHIGAN

CITY           SKY/WX    TMP DP  RH WIND       PRES   REMARKS
BATTLE CREEK   CLOUDY    80  71  74 NE8       29.98S
BENTON HARBOR  PTSUNNY   82  72  71 S5        29.94R
COLDWATER*     CLOUDY    82  73  74 NE7       29.97S
HILLSDALE*     PTSUNNY   81  73  76 NW5       29.99S
HOLLAND        PTSUNNY   82  73  74 CALM      29.96S
GRAND RAPIDS   PTSUNNY   80  76  87 E6        29.97S
KALAMAZOO      MOSUNNY   84  72  67 VRB5      29.96S
STURGIS*       MOSUNNY   82  73  74 N5        29.96S
THREE RIVERS*  PTSUNNY   83  73  71 NE6       29.95F

$$
OHZ001>008-015>018-024>025-222300-
NORTHWEST OHIO

CITY           SKY/WX    TMP DP  RH WIND       PRES   REMARKS
DEFIANCE       CLOUDY    83  72  69 NE7       29.95S
FINDLAY        PTSUNNY   82  74  76 W3        29.95S
TOLEDO EXPRESS CLOUDY    81  73  76 E5        29.95F
TOLEDO METCALF CLOUDY    80  71  74 NE5       29.96F
LIMA           PTSUNNY   80  73  79 NW9       29.97R

$$
&&



USA.gov is the U.S. government's official web portal to all federal, state and local government web resources and services.